Regional Weather Roundup
Issued by NWS

Home | Current Version | Previous Version | Graphics & Text | Print | Product List | Glossary On
Versions: 1 2 3 4 5 6 7 8 9 10 11 12 13 14 15 16 17 18 19 20 21 22 23 24 25 26 27 28 29 30 31 32 33 34 35 36 37 38 39 40 41 42 43 44 45 46 47 48 49 50
419
ASUS43 KLMK 022102
RWRKY
KENTUCKY REGIONAL WEATHER ROUNDUP
NATIONAL WEATHER SERVICE LOUISVILLE KY
500 PM EDT MON MAY 02 2016

NOTE "FAIR" INDICATES FEW OR NO CLOUDS BELOW 12,000 FEET
WITH NO SIGNIFICANT WEATHER AND/OR OBSTRUCTIONS TO VISIBILITY.

KYZ001>023-026-027-061>063-070>075-022200-
WESTERN AND SOUTH CENTRAL KENTUCKY

CITY           SKY/WX    TMP DP  RH WIND       PRES   REMARKS
PADUCAH        CLOUDY    65  51  60 NW7       29.97S
HENDERSON      CLOUDY    63  50  63 NW10      29.95F
OWENSBORO      PTSUNNY   65  52  62 NW10      29.95S
HOPKINSVILLE   CLOUDY    60  56  85 VRB3      29.94F
BOWLING GREEN  CLOUDY    62  57  83 VRB5      29.94F
GLASGOW        NOT AVBL
$$

KYZ024-025-028>034-038-045-046-053-022200-
NORTH CENTRAL KENTUCKY

CITY           SKY/WX    TMP DP  RH WIND       PRES   REMARKS
LOUISVILLE/SDF CLOUDY    65  52  62 W12       29.92F
LOUISVILLE/LOU CLOUDY    64  51  62 W8        29.92F
FORT KNOX      CLOUDY    63  53  70 NW7       29.91F
$$

KYZ035>037-039>044-047>052-055>060-089>105-022200-
NORTHEAST KENTUCKY

CITY           SKY/WX    TMP DP  RH WIND       PRES   REMARKS
LEXINGTON      CLOUDY    62  57  83 W9        29.93R
COVINGTON      CLOUDY    63  51  65 W7        29.92F
FRANKFORT      CLOUDY    65  54  67 W8        29.91F
$$

KYZ054-064>069-076>088-106>120-022200-
SOUTHEAST KENTUCKY

CITY           SKY/WX    TMP DP  RH WIND       PRES   REMARKS
JACKSON        RAIN      60  58  92 VRB3      29.96F FOG
LONDON         RAIN      60  58  92 SE6       29.97F FOG
SOMERSET       NOT AVBL
MIDDLESBORO    NOT AVBL
MONTICELLO     CLOUDY    63  59  87 CALM      29.94F
$$





USA.gov is the U.S. government's official web portal to all federal, state and local government web resources and services.